Bridgeport, WV

10:57 AM EST on February 24, 2017 (GMT -0500)
Benedum

Weather History for KCKB - April, 2013

Change the Weather History Date:

Thursday, April 4, 2013

  Actual Average Record
Temperature  
Mean Temperature 40 °F -  
Max Temperature 55 °F 61 °F 85 °F (1940)
Min Temperature 24 °F 35 °F 17 °F (1943)
Degree Days  
Heating Degree Days 26    
Moisture  
Dew Point 15 °F    
Average Humidity 39    
Maximum Humidity 63    
Minimum Humidity 20    
Precipitation  
Precipitation 0.00 in - - ()
Sea Level Pressure  
Sea Level Pressure 30.18 in    
Wind  
Wind Speed 2 mph (West)    
Max Wind Speed 9 mph    
Max Gust Speed -    
Visibility 10 miles    
Events      
Averages and records for this station are not official NWS values.
T = Trace of Precipitation, MM = Missing Value Source: NWS Daily Summary

Daily Weather History Graph

Daily Weather History Graph

Search for Another Location

Airport or City:

Trip Planner

Search our weather history database for the weather conditions in past years. The results will help you decide how hot, cold, wet, or windy it might be!

Date:

Astronomy

Apr. 04, 2013 Rise Set
Actual Time 7:00 AM EDT 7:47 PM EDT
Civil Twilight 6:33 AM EDT 8:15 PM EDT
Nautical Twilight 6:01 AM EDT 8:47 PM EDT
Astronomical Twilight 5:27 AM EDT 9:20 PM EDT
Moon 3:23 AM EDT (4/4) 2:06 PM EDT (4/4)
Length of Visible Light 13h 42m
Length of Day
12h 47m
Waning Crescent, 34% of the Moon is Illuminated
Apr 4
Waning Crescent
Apr 10
New
Apr 18
First Quarter
Apr 25
Full
May 2
Last Quarter

Hourly Weather History & Observations

Time (EDT) Temp. Windchill Dew Point Humidity Pressure Visibility Wind Dir Wind Speed Gust Speed Precip Events Conditions
12:53 AM 28.9 °F - 8.1 °F 41% 30.36 in 10.0 mi Calm Calm - N/A   Clear
1:53 AM 28.9 °F - 8.1 °F 41% 30.36 in 10.0 mi Calm Calm - N/A   Clear
2:53 AM 25.0 °F 20.7 °F 10.9 °F 55% 30.36 in 10.0 mi NNE 3.5 mph - N/A   Clear
3:53 AM 25.0 °F 20.7 °F 10.0 °F 53% 30.35 in 10.0 mi NE 3.5 mph - N/A   Clear
4:53 AM 24.1 °F - 12.0 °F 60% 30.35 in 10.0 mi Calm Calm - N/A   Clear
5:53 AM 24.1 °F 17.0 °F 12.0 °F 60% 30.31 in 10.0 mi NE 5.8 mph - N/A   Clear
6:53 AM 25.0 °F - 12.0 °F 58% 30.29 in 10.0 mi Calm Calm - N/A   Clear
7:53 AM 25.0 °F 19.3 °F 14.0 °F 63% 30.29 in 10.0 mi NNE 4.6 mph - N/A   Clear
8:53 AM 28.9 °F 23.9 °F 15.1 °F 56% 30.28 in 10.0 mi NNE 4.6 mph - N/A   Clear
9:53 AM 34.0 °F - 16.0 °F 48% 30.25 in 10.0 mi Calm Calm - N/A   Clear
10:53 AM 39.0 °F 36.8 °F 15.1 °F 38% 30.23 in 10.0 mi SSE 3.5 mph - N/A   Clear
11:53 AM 45.0 °F 43.5 °F 15.1 °F 30% 30.19 in 10.0 mi Variable 3.5 mph - N/A   Clear
12:53 PM 50.0 °F - 16.0 °F 26% 30.15 in 10.0 mi Calm Calm - N/A   Clear
1:53 PM 52.0 °F - 14.0 °F 22% 30.12 in 10.0 mi Calm Calm - N/A   Clear
2:53 PM 53.1 °F - 14.0 °F 21% 30.09 in 10.0 mi WNW 5.8 mph - N/A   Clear
3:53 PM 55.0 °F - 14.0 °F 20% 30.06 in 10.0 mi WNW 3.5 mph - N/A   Clear
4:53 PM 54.0 °F - 15.1 °F 22% 30.04 in 10.0 mi West 3.5 mph - N/A   Clear
5:53 PM 54.0 °F - 15.1 °F 22% 30.04 in 10.0 mi Calm Calm - N/A   Clear
6:53 PM 51.1 °F - 18.0 °F 27% 30.04 in 10.0 mi SW 9.2 mph - N/A   Clear
7:53 PM 48.9 °F - 17.1 °F 28% 30.04 in 10.0 mi South 5.8 mph - N/A   Clear
8:53 PM 46.9 °F - 18.0 °F 32% 30.03 in 10.0 mi South 4.6 mph - N/A   Partly Cloudy
9:53 PM 45.0 °F 41.8 °F 19.9 °F 37% 30.03 in 10.0 mi SSW 5.8 mph - N/A   Overcast
10:53 PM 46.0 °F 43.9 °F 19.0 °F 34% 30.01 in 10.0 mi SW 4.6 mph - N/A   Overcast
11:53 PM 44.1 °F - 21.9 °F 42% 29.99 in 10.0 mi Calm Calm - N/A   Scattered Clouds